Wind_Speed
21 21 21 21 21 21 21 21 21 20 21 22 23 24 25 26 27 28 29 30 31 32 33 35 36 37 38 39 39 40 40 41 42 42 43 43 43 44 44 44 45 45 45 45
24 25 24 24 23 23 23 23 22 22 22 23 25 26 26 28 28 29 31 32 33 34 35 36 38 39 39 40 41 41 42 43 43 44 44 45 45 45 46 46 46 47 47 47
28 27 27 27 25 25 25 25 25 25 25 26 27 28 29 30 30 31 32 33 35 36 37 38 39 40 41 42 42 43 43 44 44 45 45 46 47 47 47 48 48 48 49 50
32 31 32 30 29 28 28 28 29 29 29 29 30 30 31 32 32 33 34 35 36 38 39 40 41 42 42 43 44 44 45 46 46 47 47 47 47 48 48 49 49 50 51 51
35 35 35 33 32 32 32 32 31 32 32 32 32 33 34 34 35 35 36 37 38 39 40 41 42 43 44 45 45 46 46 47 47 48 48 48 48 49 50 50 51 51 52 52
38 38 38 36 35 35 36 36 34 34 34 35 35 35 35 36 37 38 39 40 41 41 42 43 44 45 45 46 46 47 47 48 48 49 49 49 50 50 50 51 52 52 52 52
41 41 41 40 39 38 38 38 38 38 38 38 38 39 39 40 40 41 42 42 43 44 45 45 46 46 46 47 47 47 47 48 48 49 50 50 50 50 51 51 51 51 52 52
43 44 44 43 43 42 42 42 41 42 42 42 42 42 42 43 43 44 44 45 45 46 46 47 47 47 47 48 48 48 48 48 48 49 50 50 51 51 51 52 52 52 52 52
46 47 46 46 46 46 46 45 45 45 45 45 45 45 45 45 46 46 46 47 47 47 47 48 48 49 48 48 48 48 48 49 49 50 50 51 51 51 51 51 51 51 51 51
49 48 48 49 48 48 48 47 47 47 47 47 46 47 47 47 48 48 48 48 48 48 48 48 48 49 49 49 49 49 49 50 50 50 50 51 51 51 51 51 51 51 51 51
51 50 50 49 49 49 48 47 47 47 47 48 48 48 48 49 49 49 49 49 49 49 49 49 49 50 50 50 50 50 50 50 50 50 50 50 50 50 50 50 50 50 50 50
50 49 50 50 49 49 49 49 48 48 48 49 49 50 50 50 50 50 50 50 50 50 50 50 50 50 50 50 50 50 50 50 50 49 49 49 49 49 49 49 49 49 49 49
50 50 50 50 50 50 50 49 49 49 49 50 51 51 51 50 50 51 51 51 50 50 50 50 50 50 50 50 50 50 50 49 49 49 48 48 48 48 48 48 48 48 48 48
50 50 50 49 49 50 50 49 49 49 49 50 50 50 50 49 50 50 50 50 50 49 49 49 49 49 50 50 50 49 49 49 49 49 48 48 48 48 49 48 47 47 47 47
49 48 48 48 48 48 48 48 48 48 48 48 48 48 48 48 48 48 49 49 49 48 48 48 48 48 49 49 49 48 48 48 48 48 48 48 48 48 48 47 47 46 45 45
47 48 48 48 48 48 48 48 47 47 47 47 47 47 48 48 48 48 48 48 48 48 48 48 48 48 48 48 48 47 47 47 47 47 47 48 48 48 47 46 46 45 45 45
46 47 47 47 47 47 47 47 47 47 46 46 46 46 47 47 47 47 47 48 48 48 48 48 48 47 47 47 47 47 47 47 47 48 48 48 48 47 46 46 46 45 45 45
43 43 43 44 44 45 46 46 46 46 46 45 46 46 46 46 46 46 46 46 47 47 47 47 46 46 46 47 47 47 47 47 47 47 47 47 47 46 45 45 45 45 44 44
41 41 42 42 42 43 43 44 44 44 44 44 44 44 44 44 45 45 45 45 45 45 45 46 47 47 47 47 47 47 46 46 45 45 45 45 44 44 44 44 44 44 43 43
39 39 40 40 41 41 40 41 41 42 42 43 44 44 44 44 44 44 44 44 44 44 45 45 46 47 47 47 47 46 45 44 44 43 43 42 42 42 42 42 41 41 40 39
38 38 39 39 40 39 39 40 41 42 42 43 43 43 44 44 44 44 44 44 43 44 45 45 45 46 46 46 45 44 43 43 42 41 41 41 41 40 40 40 39 38 36 34
36 36 37 38 39 39 40 41 42 42 42 43 43 43 44 44 44 44 44 43 43 44 45 45 45 45 45 44 43 42 42 41 41 40 40 39 39 38 38 37 36 34 32 30
35 35 36 36 37 38 39 40 41 42 43 43 43 43 43 43 42 42 42 41 42 43 43 43 43 43 42 42 41 40 40 39 38 38 37 37 36 35 35 34 32 30 29 28
35 35 36 36 37 37 37 38 39 40 41 41 40 40 41 40 40 40 41 40 40 40 40 40 40 40 40 39 39 38 37 36 35 34 33 33 32 32 31 30 29 27 26 25
35 36 36 36 37 37 37 37 38 38 38 38 38 38 38 39 39 38 39 40 39 39 38 38 38 37 37 37 36 35 34 33 32 31 31 30 30 29 28 27 26 25 23 22
36 36 36 37 37 37 37 37 36 35 35 35 34 35 36 37 38 38 38 38 37 37 36 36 35 35 34 34 33 32 31 31 30 29 28 28 27 26 24 23 23 22 21 20
36 36 36 36 36 36 36 35 34 34 33 33 33 33 35 36 36 36 36 35 34 34 33 33 33 32 32 32 31 30 29 28 28 27 26 25 24 23 22 21 20 19 19 19
Wind_Direction
293 294 293 293 292 290 288 286 283 281 277 275 272 270 270 270 270 269 268 268 268 267 268 270 271 271 272 272 273 274 275 274 274 275 276 276 276 277 277 278 279 279 279 280
289 290 289 289 290 290 287 285 283 280 279 276 275 274 273 273 272 271 270 270 270 270 271 272 272 273 273 273 274 275 275 275 275 275 276 276 277 277 277 278 279 279 280 280
285 285 284 285 288 286 285 284 282 281 281 279 278 277 275 275 275 274 273 273 273 272 273 273 273 274 274 274 274 275 275 275 275 276 277 277 277 278 278 279 279 280 280 281
283 283 281 285 284 283 282 281 281 281 281 281 280 279 278 278 277 276 275 275 275 274 274 274 274 274 274 275 275 275 275 275 276 277 277 278 278 279 279 279 280 280 281 281
281 281 282 283 283 282 281 280 280 280 280 280 279 278 277 278 278 278 277 277 277 276 276 276 276 275 275 274 275 275 276 276 276 277 278 278 279 279 280 280 281 281 282 282
280 280 281 283 282 281 280 279 280 280 280 280 279 278 278 278 278 278 278 278 278 278 277 277 277 277 277 276 276 277 277 277 277 278 279 279 280 280 281 281 281 282 282 282
279 279 280 282 282 281 279 280 279 279 279 280 280 280 280 280 280 280 279 279 279 279 278 278 278 278 278 278 278 278 278 278 279 279 279 279 280 281 282 282 282 282 282 282
277 277 279 280 279 279 279 278 278 279 280 280 281 280 280 280 280 280 281 280 280 280 279 279 279 278 278 278 278 278 278 279 279 280 280 280 281 281 282 282 282 283 283 283
276 277 277 278 278 279 278 277 277 278 278 279 279 279 279 279 280 280 281 282 281 281 280 280 279 279 279 279 279 278 279 280 280 280 281 281 281 281 281 282 282 283 283 283
274 275 276 277 278 278 277 277 277 277 277 277 278 278 279 279 280 281 281 282 282 281 280 279 279 279 279 279 279 279 280 280 280 281 281 281 281 281 281 281 282 283 284 284
273 274 275 276 277 277 276 275 276 276 276 276 276 277 278 279 280 281 281 281 281 281 280 280 279 279 280 280 280 280 281 281 281 281 281 281 281 281 281 281 282 283 284 284
272 273 274 275 275 275 275 275 275 275 275 275 276 277 278 279 280 281 281 281 281 280 280 280 280 280 280 281 281 281 281 281 281 281 281 281 281 281 281 282 282 283 283 284
272 273 273 274 274 275 275 275 275 275 275 276 277 279 280 280 281 281 281 281 280 280 280 280 280 280 280 281 282 282 281 281 281 281 281 281 281 281 281 282 281 281 282 283
272 273 273 274 275 275 275 275 275 276 277 278 279 279 280 281 281 281 281 280 280 280 280 279 280 280 281 281 282 282 281 281 280 280 280 281 281 282 282 282 281 281 281 282
272 273 273 273 274 274 275 276 277 277 278 279 279 280 280 280 280 280 280 280 280 280 280 279 280 281 281 282 282 282 282 281 281 280 279 280 281 282 282 282 281 281 280 280
272 272 273 273 274 274 275 276 277 278 278 279 280 280 280 280 280 280 280 279 279 279 280 280 280 281 281 281 282 282 282 282 281 280 279 280 281 282 282 282 281 280 280 281
273 274 274 274 275 275 275 276 277 278 278 279 279 280 280 280 280 280 280 279 280 280 280 280 280 280 280 281 282 283 282 281 282 281 280 280 281 282 282 281 281 281 281 281
274 274 274 275 276 275 275 276 277 278 278 279 280 280 281 281 281 280 280 280 281 281 281 281 280 280 281 282 283 284 283 282 282 282 281 281 281 281 281 281 282 282 282 281
273 274 275 276 277 278 278 278 278 279 279 279 280 280 281 281 281 280 280 281 281 281 280 280 281 282 282 282 283 283 283 283 283 282 281 281 281 280 281 281 282 282 282 282
273 274 276 277 279 280 280 279 280 279 279 280 281 281 281 281 281 280 281 281 282 281 281 281 281 282 282 283 283 283 283 282 282 282 281 281 281 281 281 282 282 283 283 281
274 275 276 278 280 280 279 279 279 280 281 281 281 282 282 282 282 282 282 282 282 282 282 282 282 282 282 283 283 283 283 283 283 282 281 281 281 281 281 281 282 282 281 279
278 278 280 281 281 280 280 281 281 282 282 282 283 283 283 283 283 282 282 282 282 281 281 281 282 283 283 283 283 283 284 284 283 282 281 281 281 281 281 281 281 280 279 277
281 282 282 283 282 282 282 283 283 283 283 283 283 283 282 282 282 282 282 281 282 282 281 282 283 283 283 284 284 284 284 284 284 282 281 280 280 280 280 280 279 277 276 274
284 285 285 286 286 286 286 285 284 284 284 284 283 282 282 282 282 282 282 282 283 283 282 283 283 284 284 284 284 284 284 284 283 281 279 279 278 278 278 277 276 275 273 270
286 287 287 286 286 287 287 286 286 286 285 284 283 283 283 284 284 284 284 284 283 283 283 283 284 285 284 283 283 283 283 282 281 280 278 278 278 277 275 273 272 270 268 266
286 286 286 286 286 286 286 286 286 286 285 285 285 285 285 286 286 287 286 285 284 284 284 284 284 284 283 282 282 281 280 279 278 278 277 277 276 274 272 269 268 266 264 262
285 286 287 287 286 285 285 286 286 287 286 286 286 286 287 287 287 288 287 285 284 283 284 284 285 284 283 282 280 279 278 277 277 277 276 275 274 271 268 265 263 263 262 259
Height
5701 5698 5697 5695 5694 5691 5689 5688 5687 5687 5685 5684 5682 5681 5680 5680 5679 5679 5679 5679 5678 5677 5677 5676 5675 5674 5673 5672 5671 5670 5669 5668 5667 5666 5665 5664 5662 5661 5660 5658 5656 5654 5653 5651
5695 5692 5690 5689 5688 5686 5684 5682 5680 5679 5679 5677 5675 5674 5673 5672 5672 5671 5670 5670 5669 5668 5667 5666 5665 5664 5663 5662 5661 5660 5658 5657 5655 5654 5653 5652 5650 5649 5647 5645 5644 5642 5640 5638
5686 5685 5682 5682 5682 5679 5677 5675 5674 5672 5672 5670 5668 5667 5665 5664 5663 5662 5661 5660 5659 5658 5657 5656 5655 5654 5652 5651 5650 5648 5647 5645 5644 5642 5641 5639 5638 5636 5634 5632 5630 5628 5626 5624
5676 5676 5673 5676 5673 5671 5669 5668 5666 5664 5663 5661 5660 5658 5657 5655 5654 5653 5651 5650 5649 5648 5647 5645 5643 5642 5641 5639 5638 5636 5635 5633 5631 5630 5628 5626 5624 5622 5620 5618 5617 5614 5612 5610
5666 5664 5663 5665 5664 5661 5659 5658 5657 5655 5654 5652 5650 5649 5648 5646 5644 5642 5641 5639 5638 5636 5635 5633 5631 5630 5628 5627 5625 5624 5622 5620 5618 5616 5615 5613 5611 5608 5606 5604 5602 5600 5597 5595
5655 5653 5652 5655 5653 5650 5649 5647 5647 5644 5643 5641 5639 5638 5638 5635 5633 5631 5630 5628 5626 5624 5623 5621 5619 5617 5615 5614 5612 5610 5608 5606 5604 5602 5600 5598 5596 5594 5591 5589 5587 5584 5582 5579
5644 5641 5641 5642 5640 5638 5638 5637 5635 5632 5630 5629 5627 5626 5625 5623 5621 5619 5617 5615 5614 5612 5610 5607 5605 5604 5602 5600 5598 5596 5594 5592 5590 5588 5586 5584 5581 5579 5577 5574 5572 5569 5567 5564
5631 5629 5631 5629 5627 5626 5625 5623 5621 5619 5618 5616 5615 5613 5612 5610 5608 5606 5604 5602 5600 5598 5596 5594 5591 5590 5588 5586 5584 5582 5580 5578 5576 5573 5571 5569 5566 5564 5561 5558 5556 5553 5551 5549
5619 5619 5617 5615 5613 5611 5610 5609 5607 5606 5604 5603 5601 5600 5598 5596 5594 5592 5590 5588 5586 5584 5582 5579 5577 5575 5573 5571 5569 5567 5565 5563 5561 5558 5556 5553 5551 5548 5546 5543 5540 5538 5535 5533
5604 5604 5602 5600 5598 5596 5595 5594 5592 5591 5590 5588 5587 5585 5583 5582 5580 5578 5576 5574 5571 5569 5567 5564 5562 5560 5558 5556 5554 5552 5550 5548 5545 5543 5541 5538 5535 5533 5530 5528 5525 5522 5520 5517
5588 5589 5587 5585 5583 5582 5580 5578 5577 5576 5575 5573 5572 5570 5569 5567 5565 5563 5561 5559 5556 5554 5552 5549 5547 5545 5543 5541 5539 5537 5535 5532 5530 5527 5525 5523 5520 5517 5515 5513 5509 5507 5504 5502
5574 5574 5571 5571 5568 5567 5565 5564 5563 5561 5560 5558 5556 5555 5553 5552 5550 5548 5546 5543 5541 5539 5536 5534 5532 5530 5528 5526 5523 5521 5519 5517 5514 5512 5509 5507 5505 5503 5500 5497 5495 5492 5489 5486
5557 5557 5555 5554 5553 5551 5550 5548 5547 5546 5545 5543 5541 5539 5538 5536 5534 5531 5529 5527 5525 5523 5521 5519 5517 5515 5512 5510 5508 5506 5503 5501 5498 5496 5494 5491 5489 5487 5485 5483 5480 5477 5474 5471
5542 5540 5539 5539 5537 5536 5534 5533 5532 5530 5529 5527 5526 5524 5522 5520 5518 5515 5513 5511 5510 5508 5505 5503 5501 5499 5496 5494 5492 5490 5487 5485 5483 5481 5478 5476 5473 5471 5469 5467 5465 5463 5460 5457
5526 5525 5524 5523 5522 5520 5519 5518 5516 5515 5513 5512 5510 5508 5506 5504 5502 5500 5498 5496 5494 5492 5490 5488 5486 5484 5481 5479 5477 5474 5472 5469 5467 5465 5463 5461 5458 5456 5454 5451 5450 5448 5446 5443
5510 5509 5508 5507 5506 5505 5504 5502 5501 5500 5498 5497 5495 5493 5491 5489 5487 5485 5482 5480 5479 5477 5474 5472 5471 5468 5466 5463 5461 5459 5457 5454 5451 5449 5447 5445 5443 5441 5439 5436 5435 5433 5431 5429
5495 5494 5493 5492 5491 5490 5489 5487 5486 5484 5483 5481 5480 5478 5476 5473 5471 5469 5467 5465 5463 5461 5459 5457 5455 5453 5450 5448 5446 5444 5441 5439 5436 5434 5432 5430 5428 5426 5424 5422 5420 5418 5417 5415
5479 5479 5478 5477 5476 5475 5474 5472 5471 5469 5468 5466 5464 5463 5461 5459 5456 5454 5452 5450 5448 5446 5444 5441 5440 5438 5435 5433 5430 5428 5426 5424 5421 5419 5416 5415 5413 5411 5409 5407 5405 5403 5402 5400
5465 5465 5464 5463 5462 5461 5459 5458 5456 5455 5453 5451 5450 5448 5446 5444 5442 5440 5437 5435 5433 5432 5430 5427 5425 5423 5421 5418 5415 5413 5410 5408 5406 5404 5402 5400 5398 5396 5394 5393 5391 5389 5387 5386
5452 5452 5451 5449 5448 5447 5445 5444 5442 5441 5439 5437 5435 5434 5432 5430 5427 5425 5423 5421 5419 5417 5415 5413 5410 5408 5406 5403 5400 5398 5396 5394 5392 5390 5388 5386 5384 5383 5381 5379 5377 5375 5373 5371
5440 5439 5438 5436 5435 5433 5432 5430 5428 5427 5425 5423 5421 5420 5418 5416 5413 5411 5408 5407 5406 5402 5400 5398 5396 5394 5391 5389 5386 5384 5382 5380 5378 5376 5374 5372 5371 5369 5368 5366 5364 5362 5360 5359
5427 5426 5425 5423 5422 5421 5419 5417 5415 5413 5411 5409 5407 5405 5403 5401 5399 5396 5394 5393 5391 5388 5385 5384 5381 5379 5377 5374 5372 5370 5368 5366 5364 5362 5360 5359 5357 5356 5355 5353 5352 5350 5349 5348
5415 5414 5412 5411 5409 5407 5406 5404 5401 5399 5397 5396 5394 5391 5389 5386 5384 5382 5381 5379 5376 5374 5371 5370 5367 5365 5362 5360 5359 5357 5355 5353 5351 5349 5347 5346 5345 5343 5342 5342 5340 5339 5339 5338
5403 5401 5400 5398 5396 5394 5393 5391 5388 5385 5383 5381 5379 5377 5374 5372 5371 5369 5366 5365 5362 5360 5358 5356 5354 5351 5349 5347 5345 5344 5342 5340 5338 5336 5335 5334 5333 5332 5331 5331 5330 5330 5329 5329
5391 5389 5387 5385 5383 5381 5379 5377 5374 5372 5370 5368 5366 5364 5361 5359 5357 5356 5353 5351 5349 5347 5345 5343 5341 5339 5336 5335 5333 5331 5330 5328 5327 5325 5324 5323 5323 5322 5321 5321 5321 5321 5321 5321
5379 5377 5375 5373 5370 5368 5366 5363 5361 5359 5357 5355 5354 5352 5349 5346 5344 5342 5340 5338 5336 5334 5332 5330 5329 5327 5325 5323 5321 5320 5318 5317 5316 5315 5314 5314 5313 5312 5312 5312 5312 5313 5313 5314
5367 5365 5362 5360 5358 5356 5353 5351 5349 5347 5345 5343 5342 5340 5337 5335 5332 5330 5328 5326 5324 5322 5320 5319 5317 5315 5314 5312 5311 5309 5308 5307 5307 5306 5305 5305 5304 5304 5304 5305 5305 5306 5306 5307